GJ7DNI-13 Weather Reports


time (UTC)temp
C
wind
direction
speed
KPH
gust
KPH
rain 1hr
cm
rain 24hr
cm
rain mn
cm
humidity
%
barometer
mb
20260507173451 16 35 8.0 16.1 0.00 0.00 0.00 56 1011.5
20260507172951 16 56 8.0 11.3 0.00 0.00 0.00 56 1011.6
20260507172451 16 37 8.0 20.9 0.00 0.00 0.00 55 1011.7
20260507171951 17 65 6.4 19.3 0.00 0.00 0.00 55 1011.7
20260507171453 17 44 6.4 19.3 0.00 0.00 0.00 51 1011.7
20260507170951 17 56 4.8 14.5 0.00 0.00 0.00 50 1011.7
20260507170451 17 85 3.2 11.3 0.00 0.00 0.00 49 1011.7
20260507165951 17 75 4.8 12.9 0.00 0.00 0.00 49 1011.7
20260507165451 17 122 6.4 12.9 0.00 0.00 0.00 49 1011.8
20260507164951 17 121 6.4 12.9 0.00 0.00 0.00 48 1011.8
20260507164451 17 118 6.4 12.9 0.00 0.00 0.00 48 1011.7
20260507163951 17 103 4.8 11.3 0.00 0.00 0.00 47 1011.7
20260507163451 18 138 4.8 12.9 0.00 0.00 0.00 48 1011.8
20260507162951 18 78 4.8 12.9 0.00 0.00 0.00 48 1011.8
20260507162451 18 105 6.4 12.9 0.00 0.00 0.00 48 1011.9
20260507161951 17 117 6.4 11.3 0.00 0.00 0.00 48 1011.9
20260507161451 17 75 6.4 14.5 0.00 0.00 0.00 47 1011.9
20260507160951 18 123 4.8 12.9 0.00 0.00 0.00 47 1012.0
20260507160451 17 122 6.4 9.7 0.00 0.00 0.00 48 1012.0
20260507155951 17 103 8.0 16.1 0.00 0.00 0.00 47 1012.1
20260507155451 18 114 8.0 17.7 0.00 0.00 0.00 46 1012.1
20260507154951 18 106 8.0 17.7 0.00 0.00 0.00 46 1012.1
20260507154451 18 102 8.0 16.1 0.00 0.00 0.00 45 1012.1
20260507153951 18 93 9.7 14.5 0.00 0.00 0.00 45 1012.1
20260507153451 19 145 9.7 19.3 0.00 0.00 0.00 43 1012.1
20260507152951 18 122 9.7 16.1 0.00 0.00 0.00 44 1012.1
20260507152451 19 117 8.0 17.7 0.00 0.00 0.00 44 1012.1
20260507151951 19 118 8.0 17.7 0.00 0.00 0.00 42 1012.1
20260507151451 20 102 9.7 20.9 0.00 0.00 0.00 42 1012.2
20260507150951 19 127 11.3 19.3 0.00 0.00 0.00 42 1012.2
20260507150451 19 97 11.3 19.3 0.00 0.00 0.00 43 1012.2
20260507145951 19 129 9.7 19.3 0.00 0.00 0.00 42 1012.2
20260507145451 20 85 9.7 14.5 0.00 0.00 0.00 43 1012.3
20260507144951 19 82 11.3 20.9 0.00 0.00 0.00 43 1012.3
20260507144451 19 118 12.9 20.9 0.00 0.00 0.00 43 1012.4
20260507143951 18 107 14.5 22.5 0.00 0.00 0.00 44 1012.4
20260507143451 19 124 11.3 22.5 0.00 0.00 0.00 43 1012.4
20260507142951 19 85 9.7 19.3 0.00 0.00 0.00 45 1012.6
20260507142451 18 82 11.3 17.7 0.00 0.00 0.00 46 1012.6
20260507141951 18 103 12.9 20.9 0.00 0.00 0.00 45 1012.7
20260507141451 18 116 11.3 22.5 0.00 0.00 0.00 48 1012.6
20260507140951 18 112 9.7 20.9 0.00 0.00 0.00 46 1012.8
20260507140451 18 93 11.3 17.7 0.00 0.00 0.00 50 1012.9
20260507135951 18 143 11.3 20.9 0.00 0.00 0.00 48 1013.0
20260507135451 18 110 9.7 17.7 0.00 0.00 0.00 50 1013.1
20260507134951 17 114 9.7 16.1 0.00 0.00 0.00 55 1013.1
20260507134451 17 178 8.0 16.1 0.00 0.00 0.00 55 1013.2
20260507133951 17 125 8.0 14.5 0.00 0.00 0.00 54 1013.2
20260507133451 18 125 8.0 20.9 0.00 0.00 0.00 51 1013.2
20260507132951 17 126 8.0 19.3 0.00 0.00 0.00 54 1013.2
20260507132451 17 177 9.7 16.1 0.00 0.00 0.00 57 1013.3
20260507131951 16 125 9.7 14.5 0.00 0.00 0.00 60 1013.4
20260507131451 16 135 9.7 17.7 0.00 0.00 0.00 61 1013.5
20260507130951 16 168 11.3 16.1 0.00 0.00 0.00 61 1013.5
20260507130451 16 128 9.7 20.9 0.00 0.00 0.00 60 1013.5
20260507125951 16 128 9.7 24.1 0.00 0.00 0.00 59 1013.5
20260507125451 16 100 9.7 22.5 0.00 0.00 0.00 61 1013.5
20260507124951 16 108 8.0 16.1 0.00 0.00 0.00 60 1013.5
20260507124451 15 144 11.3 16.1 0.00 0.00 0.00 61 1013.5
20260507123951 15 107 11.3 20.9 0.00 0.00 0.00 63 1013.6
20260507123451 15 123 9.7 20.9 0.00 0.00 0.00 61 1013.7
20260507122951 16 158 9.7 16.1 0.00 0.00 0.00 62 1013.6
20260507122451 16 95 9.7 20.9 0.00 0.00 0.00 60 1013.6
20260507121951 15 132 9.7 19.3 0.00 0.00 0.00 62 1013.7
20260507121451 16 162 8.0 17.7 0.00 0.00 0.00 59 1013.8
20260507120951 17 127 9.7 14.5 0.00 0.00 0.00 58 1013.8
20260507120451 16 158 11.3 17.7 0.00 0.00 0.00 60 1013.7
20260507115951 16 131 11.3 20.9 0.00 0.00 0.00 60 1013.7
20260507115451 16 160 11.3 19.3 0.00 0.00 0.00 61 1013.8
20260507114951 16 145 11.3 24.1 0.00 0.00 0.00 59 1013.8
20260507114453 16 108 11.3 20.9 0.00 0.00 0.00 58 1013.8
20260507113951 16 102 11.3 20.9 0.00 0.00 0.00 58 1013.8
20260507113451 16 132 9.7 17.7 0.00 0.00 0.00 59 1013.8
20260507112951 15 145 12.9 20.9 0.00 0.00 0.00 58 1013.9
20260507112451 15 97 12.9 22.5 0.00 0.00 0.00 59 1014.0
20260507111951 16 129 12.9 20.9 0.00 0.00 0.00 57 1014.0
20260507111451 16 120 11.3 22.5 0.00 0.00 0.00 56 1014.0
20260507110951 16 102 11.3 19.3 0.00 0.00 0.00 58 1014.0
20260507110451 16 111 12.9 19.3 0.00 0.00 0.00 61 1014.0
20260507105951 15 174 12.9 20.9 0.00 0.00 0.00 61 1014.1
20260507105451 15 122 11.3 25.7 0.00 0.00 0.00 60 1014.1
20260507104951 16 144 12.9 19.3 0.00 0.00 0.00 57 1014.1
20260507104451 16 128 12.9 20.9 0.00 0.00 0.00 58 1014.1
20260507103951 15 149 11.3 24.1 0.00 0.00 0.00 60 1014.1
20260507103451 15 107 11.3 25.7 0.00 0.00 0.00 58 1014.1
20260507102951 15 96 11.3 19.3 0.00 0.00 0.00 60 1014.2
20260507102451 15 43 9.7 20.9 0.00 0.00 0.00 59 1014.1
20260507101951 15 91 9.7 20.9 0.00 0.00 0.00 60 1014.2
20260507101451 15 117 9.7 17.7 0.00 0.00 0.00 59 1014.2
20260507100951 15 135 11.3 16.1 0.00 0.00 0.00 59 1014.2
20260507100451 15 133 11.3 22.5 0.00 0.00 0.00 58 1014.2
20260507095951 15 108 11.3 19.3 0.00 0.00 0.00 58 1014.1
20260507095451 14 91 9.7 17.7 0.00 0.00 0.00 59 1014.0
20260507094951 15 119 9.7 17.7 0.00 0.00 0.00 57 1014.1
20260507094451 14 108 12.9 20.9 0.00 0.00 0.00 59 1014.1
20260507093951 14 115 12.9 22.5 0.00 0.00 0.00 59 1014.1
20260507093451 14 94 11.3 19.3 0.00 0.00 0.00 59 1014.1
20260507092951 14 126 9.7 16.1 0.00 0.00 0.00 61 1014.0
20260507092451 13 166 11.3 19.3 0.00 0.00 0.00 60 1014.0
20260507091951 13 132 11.3 19.3 0.00 0.00 0.00 60 1014.0
20260507091451 13 114 9.7 20.9 0.00 0.00 0.00 61 1013.9
20260507090952 13 115 9.7 20.9 0.00 0.00 0.00 61 1013.9
20260507090452 13 96 8.0 17.7 0.00 0.00 0.00 61 1013.9
20260507085952 13 155 8.0 19.3 0.00 0.00 0.00 61 1014.0
20260507085452 13 110 9.7 19.3 0.00 0.00 0.00 62 1014.0
20260507084952 13 127 11.3 17.7 0.00 0.00 0.00 62 1014.0
20260507084452 13 101 11.3 19.3 0.00 0.00 0.00 62 1014.0
20260507083952 13 127 9.7 22.5 0.00 0.00 0.00 62 1014.0
20260507083452 13 106 9.7 19.3 0.00 0.00 0.00 63 1014.0
20260507082952 13 123 9.7 19.3 0.00 0.00 0.00 63 1014.0
20260507082452 12 101 8.0 20.9 0.00 0.00 0.00 64 1014.0
20260507081952 12 106 6.4 16.1 0.00 0.00 0.00 65 1014.0
20260507081452 12 127 6.4 17.7 0.00 0.00 0.00 64 1014.0
20260507080952 12 105 8.0 19.3 0.00 0.00 0.00 64 1014.0
20260507080452 12 135 8.0 16.1 0.00 0.00 0.00 64 1013.9
20260507075952 12 127 6.4 16.1 0.00 0.00 0.00 65 1014.0
20260507075452 12 144 6.4 16.1 0.00 0.00 0.00 64 1013.9
20260507074952 12 125 8.0 14.5 0.00 0.00 0.00 65 1013.9
20260507074452 12 124 6.4 14.5 0.00 0.00 0.00 65 1013.9
20260507073952 12 130 6.4 16.1 0.00 0.00 0.00 66 1013.9
20260507073452 12 133 8.0 14.5 0.00 0.00 0.00 66 1013.9
20260507072952 12 116 8.0 17.7 0.00 0.00 0.00 66 1013.8
20260507072452 12 73 6.4 14.5 0.00 0.00 0.00 66 1013.8
20260507071952 12 121 6.4 14.5 0.00 0.00 0.00 66 1013.8
20260507071452 12 108 6.4 12.9 0.00 0.00 0.00 67 1013.8
20260507070952 12 103 6.4 14.5 0.00 0.00 0.00 67 1013.8
20260507070452 12 113 4.8 11.3 0.00 0.00 0.00 68 1013.8
20260507065952 12 111 6.4 11.3 0.00 0.00 0.00 67 1013.8
20260507065452 12 108 4.8 11.3 0.00 0.00 0.00 68 1013.7
20260507064952 12 83 4.8 9.7 0.00 0.00 0.00 68 1013.7
20260507064452 11 114 4.8 9.7 0.00 0.00 0.00 68 1013.7
20260507063952 11 131 3.2 9.7 0.00 0.00 0.00 69 1013.7
20260507063452 11 98 3.2 6.4 0.00 0.00 0.00 69 1013.7
20260507062952 11 112 3.2 9.7 0.00 0.00 0.00 69 1013.6
20260507062452 11 117 4.8 9.7 0.00 0.00 0.00 69 1013.6
20260507061952 11 76 4.8 9.7 0.00 0.00 0.00 69 1013.6
20260507061452 11 108 4.8 9.7 0.00 0.00 0.00 70 1013.6
20260507060952 11 112 4.8 11.3 0.00 0.00 0.00 71 1013.6
20260507060452 11 91 3.2 9.7 0.00 0.00 0.00 72 1013.5
20260507055952 10 104 3.2 6.4 0.00 0.00 0.00 73 1013.4
20260507055452 10 96 3.2 6.4 0.00 0.00 0.00 74 1013.5
20260507054952 10 91 3.2 8.0 0.00 0.00 0.00 75 1013.4
20260507054452 10 95 3.2 9.7 0.00 0.00 0.00 77 1013.5
20260507053952 10 91 1.6 4.8 0.00 0.00 0.00 78 1013.4
20260507053452 10 91 1.6 4.8 0.00 0.00 0.00 79 1013.4
20260507052952 9 84 1.6 4.8 0.00 0.00 0.00 79 1013.4
20260507052452 9 72 1.6 4.8 0.00 0.00 0.00 79 1013.3
20260507051952 9 87 3.2 4.8 0.00 0.00 0.00 80 1013.3
20260507051452 9 98 3.2 9.7 0.00 0.00 0.00 80 1013.3
20260507050952 8 43 3.2 6.4 0.00 0.00 0.00 80 1013.3
20260507050452 8 91 1.6 6.4 0.00 0.00 0.00 80 1013.3
20260507045952 8 79 1.6 6.4 0.00 0.00 0.00 81 1013.3
20260507045452 8 62 1.6 6.4 0.00 0.00 0.00 81 1013.3
20260507044952 8 61 1.6 4.8 0.00 0.00 0.00 81 1013.2
20260507044452 8 62 1.6 4.8 0.00 0.00 0.00 81 1013.2
20260507043952 8 60 3.2 4.8 0.00 0.00 0.00 81 1013.1
20260507043452 8 43 3.2 4.8 0.00 0.00 0.00 81 1013.1
20260507042952 8 62 1.6 6.4 0.00 0.00 0.00 82 1013.1
20260507042452 8 75 1.6 4.8 0.00 0.00 0.00 82 1013.1
20260507041952 8 88 1.6 4.8 0.00 0.00 0.00 82 1013.1
20260507041452 8 75 1.6 4.8 0.00 0.00 0.00 82 1013.1
20260507040952 8 65 0.0 3.2 0.00 0.00 0.00 82 1013.1
20260507040452 8 62 1.6 0.0 0.00 0.00 0.00 82 1013.1
20260507035952 8 61 1.6 3.2 0.00 0.00 0.00 82 1013.1
20260507035452 8 61 1.6 3.2 0.00 0.00 0.00 82 1013.1
20260507034952 9 61 1.6 3.2 0.00 0.00 0.00 82 1013.1
20260507034452 9 61 1.6 4.8 0.00 0.00 0.00 82 1013.1
20260507033952 9 56 1.6 3.2 0.00 0.00 0.00 82 1013.0
20260507033452 9 42 1.6 4.8 0.00 0.00 0.00 82 1013.0
20260507032952 9 42 3.2 4.8 0.00 0.00 0.00 82 1013.0
20260507032452 9 62 1.6 4.8 0.00 0.00 0.00 82 1013.0
20260507031952 10 68 1.6 4.8 0.00 0.00 0.00 82 1013.0
20260507031452 10 62 1.6 4.8 0.00 0.00 0.00 82 1013.0
20260507030952 10 60 3.2 4.8 0.00 0.00 0.00 82 1013.0
20260507030452 10 52 3.2 6.4 0.00 0.00 0.00 82 1013.0
20260507025952 10 45 1.6 4.8 0.00 0.00 0.00 81 1013.0
20260507025452 10 43 1.6 4.8 0.00 0.00 0.00 81 1013.0
20260507024952 10 74 1.6 4.8 0.00 0.00 0.00 81 1013.0
20260507024452 10 94 1.6 4.8 0.00 0.00 0.00 81 1013.0
20260507023952 10 77 3.2 4.8 0.00 0.00 0.00 81 1013.0
20260507023452 10 52 3.2 6.4 0.00 0.00 0.00 81 1012.9
20260507022952 10 66 3.2 6.4 0.00 0.00 0.00 80 1012.8
20260507022452 10 43 3.2 6.4 0.00 0.00 0.00 80 1012.8
20260507021952 10 61 4.8 9.7 0.00 0.00 0.00 80 1012.8
20260507021452 10 41 4.8 8.0 0.00 0.00 0.00 80 1012.8
20260507020952 10 61 3.2 6.4 0.00 0.00 0.00 80 1012.8
20260507020452 10 49 3.2 9.7 0.00 0.00 0.00 79 1012.8
20260507015952 10 51 3.2 6.4 0.00 0.00 0.00 80 1012.8
20260507015452 10 60 3.2 6.4 0.00 0.00 0.00 79 1012.8
20260507014952 9 40 3.2 6.4 0.00 0.00 0.00 79 1012.7
20260507014452 9 68 1.6 6.4 0.00 0.00 0.00 79 1012.7
20260507013952 9 71 1.6 4.8 0.00 0.00 0.00 79 1012.8
20260507013452 9 71 1.6 6.4 0.00 0.00 0.00 79 1012.7
20260507012952 9 72 3.2 4.8 0.00 0.00 0.00 79 1012.7
20260507012452 9 80 3.2 6.4 0.00 0.00 0.00 79 1012.7
20260507011952 9 61 3.2 6.4 0.00 0.00 0.00 78 1012.7
20260507011452 9 62 3.2 6.4 0.00 0.00 0.00 78 1012.7
20260507010952 9 54 3.2 6.4 0.00 0.00 0.00 78 1012.7
20260507010452 9 43 3.2 6.4 0.00 0.00 0.00 78 1012.8
20260507005952 9 48 1.6 4.8 0.00 0.00 0.00 78 1012.8
20260507005452 9 43 1.6 3.2 0.00 0.00 0.00 78 1012.8
20260507004952 9 43 1.6 3.2 0.00 0.00 0.00 77 1012.8
20260507004452 9 44 1.6 4.8 0.00 0.00 0.00 77 1012.9
20260507003952 9 57 1.6 3.2 0.00 0.00 0.00 77 1012.9
20260507003452 9 57 1.6 3.2 0.00 0.00 0.00 76 1012.9
20260507002952 9 57 1.6 4.8 0.00 0.00 0.00 76 1013.0
20260507002452 9 57 0.0 3.2 0.00 0.00 0.00 76 1013.0
20260507001952 9 57 0.0 4.8 0.00 0.00 0.00 75 1013.0
20260507001452 9 57 0.0 3.2 0.00 0.00 0.00 75 1013.1
20260507000952 10 57 0.0 1.6 0.00 0.00 0.00 75 1013.1
20260507000452 10 57 1.6 3.2 0.00 0.00 0.00 75 1013.1
20260506235952 10 57 1.6 3.2 0.00 0.00 0.00 75 1013.1
20260506235452 10 57 0.0 3.2 0.00 0.00 0.00 75 1013.1
20260506234952 10 56 0.0 3.2 0.00 0.00 0.00 74 1013.1
20260506234453 10 49 1.6 3.2 0.00 0.00 0.00 74 1013.1
20260506233952 10 49 1.6 3.2 0.00 0.00 0.00 74 1013.1
20260506233452 10 49 1.6 3.2 0.00 0.00 0.00 74 1013.0
20260506232952 10 49 1.6 8.0 0.00 0.00 0.00 74 1013.0
20260506232452 10 52 1.6 6.4 0.00 0.00 0.00 73 1013.0
20260506231953 10 47 1.6 4.8 0.00 0.00 0.00 73 1013.0
20260506231452 10 35 1.6 4.8 0.00 0.00 0.00 73 1013.0
20260506230953 10 38 1.6 4.8 0.00 0.00 0.00 73 1013.1
20260506230452 11 36 1.6 3.2 0.00 0.00 0.00 73 1013.1
20260506225953 11 36 1.6 4.8 0.00 0.00 0.00 73 1013.1
20260506225453 11 39 1.6 3.2 0.00 0.00 0.00 73 1013.1
20260506224953 11 41 1.6 4.8 0.00 0.00 0.00 73 1013.1
20260506224453 11 41 1.6 4.8 0.00 0.00 0.00 73 1013.1
20260506223953 11 50 1.6 4.8 0.00 0.00 0.00 73 1013.1
20260506223453 11 43 1.6 4.8 0.00 0.00 0.00 73 1013.1
20260506222953 11 33 1.6 4.8 0.00 0.00 0.00 73 1013.0
20260506222453 11 25 3.2 4.8 0.00 0.00 0.00 73 1013.0
20260506221953 11 24 1.6 4.8 0.00 0.00 0.00 72 1013.0
20260506221453 11 45 1.6 4.8 0.00 0.00 0.00 72 1013.0
20260506220953 11 45 1.6 3.2 0.00 0.00 0.00 72 1013.0
20260506220453 11 62 0.0 4.8 0.00 0.00 0.00 72 1012.9
20260506215953 11 62 0.0 1.6 0.00 0.00 0.00 72 1012.9
20260506215453 11 62 0.0 1.6 0.00 0.00 0.00 72 1012.9
20260506214953 11 62 1.6 1.6 0.00 0.00 0.00 72 1012.8
20260506214453 11 62 1.6 4.8 0.00 0.00 0.00 72 1012.8
20260506213953 11 62 1.6 4.8 0.00 0.00 0.00 72 1012.8
20260506213453 11 62 1.6 3.2 0.00 0.00 0.00 72 1012.9
20260506212953 11 62 1.6 3.2 0.00 0.00 0.00 71 1013.0
20260506212453 11 62 1.6 4.8 0.00 0.00 0.00 71 1013.0
20260506211953 11 62 1.6 3.2 0.00 0.00 0.00 72 1013.0
20260506211453 11 62 0.0 3.2 0.00 0.00 0.00 71 1013.0
20260506210953 11 62 0.0 3.2 0.00 0.00 0.00 71 1013.0
20260506210453 11 62 0.0 3.2 0.00 0.00 0.00 71 1012.9
20260506205953 12 62 0.0 3.2 0.00 0.00 0.00 71 1012.8
20260506205453 12 62 0.0 1.6 0.00 0.00 0.00 70 1012.9
20260506204953 12 62 0.0 1.6 0.00 0.00 0.00 70 1012.9
20260506204453 12 62 0.0 3.2 0.00 0.00 0.00 70 1012.8
20260506203953 12 62 0.0 3.2 0.00 0.00 0.00 70 1012.8
20260506203453 12 62 0.0 3.2 0.00 0.00 0.00 70 1012.8
20260506202953 12 62 1.6 3.2 0.00 0.00 0.00 69 1012.8
20260506202453 12 62 3.2 6.4 0.00 0.00 0.00 70 1012.7
20260506201953 12 29 3.2 4.8 0.00 0.00 0.00 69 1012.6
20260506201453 12 37 3.2 4.8 0.00 0.00 0.00 69 1012.5
20260506200953 12 57 3.2 4.8 0.00 0.00 0.00 69 1012.5
20260506200453 12 34 1.6 6.4 0.00 0.00 0.00 69 1012.4
20260506195953 12 49 1.6 4.8 0.00 0.00 0.00 69 1012.4
20260506195455 12 50 3.2 6.4 0.00 0.00 0.00 69 1012.4
20260506194953 12 39 3.2 6.4 0.00 0.00 0.00 68 1012.3
20260506194453 13 41 1.6 4.8 0.00 0.00 0.00 68 1012.3
20260506193953 13 43 1.6 4.8 0.00 0.00 0.00 68 1012.2
20260506193453 13 43 1.6 3.2 0.00 0.00 0.00 68 1012.2
20260506192953 13 48 1.6 3.2 0.00 0.00 0.00 67 1012.1
20260506192453 13 45 1.6 4.8 0.00 0.00 0.00 67 1012.1
20260506191953 13 55 1.6 4.8 0.00 0.00 0.00 66 1012.1
20260506191453 13 39 1.6 4.8 0.00 0.00 0.00 66 1012.1
20260506190953 14 21 3.2 6.4 0.00 0.00 0.00 65 1012.1
20260506190453 14 38 3.2 9.7 0.00 0.00 0.00 64 1012.0
20260506185953 15 62 4.8 4.8 0.00 0.00 0.00 62 1012.0
20260506185453 15 27 4.8 8.0 0.00 0.00 0.00 62 1012.0
20260506184953 15 31 4.8 9.7 0.00 0.00 0.00 62 1012.0
20260506184453 15 31 4.8 9.7 0.00 0.00 0.00 62 1011.9
20260506183953 15 42 3.2 8.0 0.00 0.00 0.00 63 1011.9
20260506183453 15 60 3.2 4.8 0.00 0.00 0.00 62 1011.9
20260506182953 15 13 4.8 8.0 0.00 0.00 0.00 61 1011.9
20260506182453 15 39 4.8 11.3 0.00 0.00 0.00 61 1011.9
20260506181953 16 28 6.4 14.5 0.00 0.00 0.00 60 1011.8
20260506181453 16 56 6.4 8.0 0.00 0.00 0.00 60 1011.9
20260506180953 16 39 4.8 12.9 0.00 0.00 0.00 61 1011.8
20260506180453 16 47 3.2 11.3 0.00 0.00 0.00 61 1011.8
20260506175953 16 50 4.8 8.0 0.00 0.00 0.00 61 1011.8
20260506175453 16 10 4.8 11.3 0.00 0.00 0.00 60 1011.8
20260506174953 16 91 4.8 9.7 0.00 0.00 0.00 61 1011.7
20260506174453 15 33 4.8 9.7 0.00 0.00 0.00 63 1011.7
20260506173953 15 18 4.8 11.3 0.00 0.00 0.00 61 1011.6